STARLINK-32691 (62501 NORAD) Tracking and Keplerian Element Data

This shows tracking and keplerian element data for the satellite.

Feedback or suggestion? Click here.




ElementValue
Catalog62501
NameSTARLINK-32691
Epoch Orbit564
Epoch Day35.01405802
Epoch Year2025
RAAN24.4304
Inclination43.0012
Eccentricity0.0001458
Argument of Perigee266.4614
Mean Anonmoly93.6079
Mean Motion15.50575358
Decay Rate1.7E-05
L11 62501U 25003Q 25035.01405802 .00001700 00000+0 34799-4 0 9992
L22 62501 43.0012 24.4304 0001458 266.4614 93.6079 15.50575358 5643



Live tracking and technical data element details for STARLINK-32691 (NORAD 62501). STARLINK-32691 can be tracked NOW for your location showing map with azimuth and elevation plus other details from your city location.







IsCatalogInMostPopularTable: catalog: 62501, numindb: 40
Update: records affected: 1



GetName: 62501 STARLINK-32691

Hit Count: updated at: Sun, 18 May 2025 23:23:16 GMT